Starlink 32907

operational
NORAD ID: 63095 Int'l Des: 2025-037 Owner: SPXS Country: US Constellation: starlink
LEOCIRCULAR

About Starlink 32907

Description loading...

Live Position

Loading 3D Globe...

Upcoming Passes

Altitude History

Altitude vs Time

uPlot chart will show altitude changes over time

Two-Line Element Set

1 63095U 25037U 25259.19992234 .00001816 00000-0 15989-3 0 9993
2 63095 70.0011 74.4640 0002341 269.6209 90.4682 14.98337977 32410
Epoch: Sep 16, 2025 • Age: 9 hours

Current Status

Altitude 583.3 km
Velocity 7.57 km/s
Sub-Earth Point 60.82°N, 17.82°E
Launch Date Feb 23, 2025
Age 0.5 years
Type internet

Technical Details

Classification Payload
Mass 730.00 kg
Dry Mass 700.00 kg
Total Mass 730.00 kg
Length 0.30 m
Diameter 4.10 m
Span 29.00 m
Shape Box + pan
Manufacturer SPXS
Bus Type Starlink V2M
Phase Status In Orbit
Owner/State SPXS/US

Large Constellations

Loading constellations...